Overview Statistics Trail Chart Weather Telemetry Raw packets
 

This is the latest recevied weather packets stored in our database for station/object KC5TIL. If no packets are shown the sender has not sent any weather packets the latest 10 day(s).

<< 110 111 112 113 114 >>
Time Temp. Humidity Pressure Rain* Wind** Luminosity Snow
1787772320 33.89° C 54% 1015.6 hPa 0 mm - 352 W/m² -
1787772020 33.89° C 54% 1015.8 hPa 0 mm - 276 W/m² -
1787771715 33.89° C 55% 1016 hPa 0 mm - 227 W/m² -
1787771414 33.33° C 56% 1015.8 hPa 0 mm - 203 W/m² -
1787771113 33.33° C 56% 1015.8 hPa 0 mm - 205 W/m² -
1787770809 33.33° C 56% 1016 hPa 0 mm - 204 W/m² -
1787770507 33.33° C 56% 1016 hPa 0 mm - 199 W/m² -
1787770206 32.78° C 56% 1016 hPa 0 mm - 212 W/m² -
1787769905 32.78° C 56% 1015.8 hPa 0 mm - 167 W/m² -
1787769600 32.78° C 57% 1016.2 hPa 0 mm - 159 W/m² -
1787769298 32.78° C 57% 1016 hPa 0 mm - 142 W/m² -
1787768993 32.78° C 58% 1016 hPa 0 mm - 116 W/m² -
1787768689 32.78° C 58% 1016.1 hPa 0 mm - 114 W/m² -
1787768385 32.78° C 57% 1016 hPa 0 mm - 120 W/m² -
1787768081 32.78° C 57% 1016.2 hPa 0 mm - 111 W/m² -
1787767781 32.78° C 56% 1016.3 hPa 0 mm - 104 W/m² -
1787767476 32.78° C 56% 1016.1 hPa 0 mm - 112 W/m² -
1787767174 32.78° C 55% 1016.2 hPa 0 mm - 118 W/m² -
1787766873 33.33° C 55% 1016.2 hPa 0 mm - 123 W/m² -
1787766568 33.33° C 54% 1016.1 hPa 0 mm - 127 W/m² -
1787766267 33.89° C 53% 1016.3 hPa 0 mm - 124 W/m² -
1787765962 33.33° C 53% 1016.2 hPa 0 mm - 123 W/m² -
1787765659 33.33° C 53% 1016.1 hPa 0 mm - 119 W/m² -
1787765354 33.89° C 53% 1016.2 hPa 0 mm - 108 W/m² -
1787765053 33.89° C 52% 1016.2 hPa 0 mm - 105 W/m² -

* Rain latest hour (hover to see other rain measurements)
** Current wind speed in m/s (hover to see current wind gust speed)